| time (UTC) | temp F | wind direction | speed knots | gust knots | rain 1hr in | rain 24hr in | rain mn in | humidity % | barometer mb |
| 20260507005902 | 52 | 301 | 0.0 | 1.7 | 0.00 | 0.41 | 0.19 | 70 | 1015.2 |
| 20260507004903 | 52 | 299 | 0.0 | 1.7 | 0.00 | 0.41 | 0.19 | 66 | 1014.9 |
| 20260507004353 | 53 | 292 | 0.0 | 1.7 | 0.00 | 0.42 | 0.19 | 66 | 1014.9 |
| 20260507002903 | 53 | 289 | 0.0 | 2.6 | 0.00 | 0.43 | 0.19 | 66 | 1014.8 |
| 20260507001901 | 53 | 290 | 0.0 | 1.7 | 0.00 | 0.43 | 0.19 | 63 | 1014.7 |
| 20260507000901 | 53 | 288 | 0.9 | 2.6 | 0.00 | 0.44 | 0.19 | 63 | 1014.6 |
| 20260506235900 | 54 | 287 | 0.0 | 2.6 | 0.00 | 0.44 | 0.19 | 62 | 1014.5 |
| 20260506234901 | 54 | 317 | 1.7 | 4.3 | 0.00 | 0.45 | 0.19 | 62 | 1014.7 |
| 20260506233901 | 54 | 284 | 1.7 | 3.5 | 0.00 | 0.46 | 0.19 | 60 | 1014.4 |
| 20260506232901 | 55 | 296 | 1.7 | 3.5 | 0.00 | 0.47 | 0.19 | 60 | 1014.3 |
| 20260506231901 | 55 | 305 | 1.7 | 5.2 | 0.00 | 0.49 | 0.19 | 57 | 1014.6 |
| 20260506230901 | 55 | 5 | 1.7 | 4.3 | 0.00 | 0.50 | 0.19 | 59 | 1014.8 |
| 20260506225901 | 55 | 315 | 1.7 | 6.1 | 0.00 | 0.51 | 0.19 | 58 | 1014.9 |
| 20260506224902 | 55 | 279 | 1.7 | 7.0 | 0.00 | 0.52 | 0.19 | 60 | 1014.8 |
| 20260506223902 | 55 | 306 | 1.7 | 4.3 | 0.00 | 0.52 | 0.19 | 59 | 1014.9 |
| 20260506222901 | 55 | 220 | 1.7 | 4.3 | 0.00 | 0.52 | 0.19 | 58 | 1014.9 |
| 20260506222340 | 56 | 313 | 1.7 | 3.5 | 0.00 | 0.52 | 0.19 | 57 | 1015.0 |
| 20260506220901 | 56 | 322 | 1.7 | 4.3 | 0.00 | 0.53 | 0.19 | 57 | 1014.8 |
| 20260506215901 | 56 | 299 | 1.7 | 3.5 | 0.00 | 0.54 | 0.19 | 60 | 1014.4 |
| 20260506214901 | 56 | 22 | 1.7 | 6.1 | 0.00 | 0.55 | 0.19 | 56 | 1014.3 |
| 20260506214349 | 56 | 305 | 0.9 | 4.3 | 0.00 | 0.56 | 0.19 | 57 | 1014.3 |
| 20260506212900 | 56 | 298 | 1.7 | 3.5 | 0.00 | 0.57 | 0.19 | 58 | 1014.1 |
| 20260506211901 | 56 | 304 | 2.6 | 6.1 | 0.00 | 0.59 | 0.19 | 55 | 1014.1 |
| 20260506210901 | 56 | 291 | 1.7 | 3.5 | 0.00 | 0.73 | 0.19 | 58 | 1014.2 |
| 20260506205901 | 56 | 302 | 1.7 | 3.5 | 0.00 | 0.73 | 0.19 | 59 | 1014.1 |
| 20260506205340 | 56 | 355 | 1.7 | 3.5 | 0.00 | 0.73 | 0.19 | 56 | 1014.2 |
| 20260506203901 | 56 | 277 | 1.7 | 4.3 | 0.00 | 0.73 | 0.19 | 57 | 1014.0 |
| 20260506202901 | 57 | 296 | 1.7 | 4.3 | 0.00 | 0.73 | 0.19 | 57 | 1014.0 |
| 20260506201902 | 57 | 273 | 1.7 | 6.1 | 0.00 | 0.73 | 0.19 | 58 | 1013.8 |
| 20260506200901 | 56 | 323 | 1.7 | 4.3 | 0.00 | 0.73 | 0.19 | 57 | 1013.9 |
| 20260506195901 | 56 | 286 | 1.7 | 5.2 | 0.00 | 0.73 | 0.19 | 58 | 1014.0 |
| 20260506194902 | 57 | 280 | 2.6 | 5.2 | 0.00 | 0.73 | 0.19 | 57 | 1013.9 |
| 20260506193902 | 57 | 341 | 1.7 | 6.1 | 0.00 | 0.73 | 0.19 | 58 | 1013.9 |
| 20260506193344 | 57 | 333 | 2.6 | 7.8 | 0.00 | 0.73 | 0.19 | 57 | 1013.8 |
| 20260506191903 | 58 | 309 | 1.7 | 4.3 | 0.00 | 0.73 | 0.19 | 55 | 1014.0 |
| 20260506190902 | 59 | 292 | 1.7 | 6.1 | 0.00 | 0.73 | 0.19 | 58 | 1013.8 |
| 20260506190336 | 59 | 329 | 2.6 | 6.1 | 0.00 | 0.73 | 0.19 | 55 | 1013.7 |
| 20260506184902 | 59 | 323 | 2.6 | 4.3 | 0.00 | 0.73 | 0.19 | 56 | 1013.6 |
| 20260506184343 | 59 | 298 | 1.7 | 5.2 | 0.00 | 0.73 | 0.19 | 58 | 1013.7 |
| 20260506182901 | 59 | 0 | 2.6 | 7.8 | 0.00 | 0.73 | 0.19 | 59 | 1013.5 |
| 20260506180902 | 59 | 315 | 2.6 | 6.1 | 0.00 | 0.73 | 0.19 | 60 | 1013.8 |
| 20260506180335 | 59 | 279 | 2.6 | 7.0 | 0.00 | 0.73 | 0.19 | 57 | 1013.9 |
| 20260506175336 | 59 | 61 | 1.7 | 7.0 | 0.00 | 0.73 | 0.19 | 59 | 1013.8 |
| 20260506173902 | 58 | 343 | 2.6 | 7.0 | 0.00 | 0.73 | 0.19 | 59 | 1013.9 |
| 20260506172902 | 59 | 309 | 1.7 | 4.3 | 0.00 | 0.73 | 0.19 | 60 | 1013.9 |
| 20260506171902 | 58 | 71 | 1.7 | 5.2 | 0.00 | 0.73 | 0.19 | 63 | 1013.9 |
| 20260506170903 | 58 | 60 | 2.6 | 5.2 | 0.00 | 0.73 | 0.19 | 59 | 1013.8 |
| 20260506165902 | 58 | 318 | 1.7 | 6.1 | 0.00 | 0.73 | 0.19 | 59 | 1013.9 |
| 20260506164902 | 57 | 155 | 1.7 | 5.2 | 0.00 | 0.73 | 0.19 | 63 | 1014.0 |
| 20260506162903 | 57 | 350 | 1.7 | 7.0 | 0.00 | 0.73 | 0.19 | 62 | 1014.1 |
| 20260506161901 | 56 | 12 | 1.7 | 6.1 | 0.00 | 0.73 | 0.19 | 66 | 1014.2 |
| 20260506160902 | 56 | 317 | 1.7 | 5.2 | 0.00 | 0.73 | 0.19 | 66 | 1014.1 |
| 20260506155902 | 55 | 344 | 1.7 | 4.3 | 0.00 | 0.73 | 0.19 | 67 | 1013.7 |
| 20260506154901 | 54 | 303 | 2.6 | 4.3 | 0.00 | 0.73 | 0.19 | 69 | 1013.5 |
| 20260506153902 | 54 | 351 | 1.7 | 4.3 | 0.00 | 0.73 | 0.19 | 70 | 1013.4 |
| 20260506152902 | 54 | 340 | 1.7 | 4.3 | 0.00 | 0.73 | 0.19 | 71 | 1013.3 |
| 20260506151901 | 53 | 83 | 1.7 | 3.5 | 0.00 | 0.73 | 0.19 | 69 | 1013.4 |
| 20260506150902 | 53 | 291 | 1.7 | 6.1 | 0.00 | 0.73 | 0.19 | 71 | 1013.3 |
| 20260506145901 | 52 | 289 | 1.7 | 3.5 | 0.01 | 0.73 | 0.19 | 72 | 1012.8 |
| 20260506144901 | 51 | 332 | 1.7 | 4.3 | 0.01 | 0.73 | 0.19 | 76 | 1012.9 |
| 20260506143903 | 51 | 27 | 1.7 | 7.0 | 0.01 | 0.73 | 0.19 | 73 | 1013.1 |
| 20260506142901 | 51 | 317 | 0.9 | 3.5 | 0.01 | 0.73 | 0.19 | 77 | 1013.0 |
| 20260506141901 | 50 | 323 | 1.7 | 3.5 | 0.01 | 0.73 | 0.19 | 79 | 1012.8 |
| 20260506140902 | 50 | 161 | 0.9 | 4.3 | 0.01 | 0.73 | 0.19 | 81 | 1012.6 |
| 20260506135902 | 49 | 274 | 1.7 | 5.2 | 0.00 | 0.72 | 0.18 | 83 | 1012.3 |
| 20260506134901 | 48 | 0 | 1.7 | 7.0 | 0.00 | 0.72 | 0.18 | 84 | 1012.3 |
| 20260506133902 | 48 | 294 | 1.7 | 5.2 | 0.00 | 0.72 | 0.18 | 85 | 1012.2 |
| 20260506133338 | 48 | 306 | 1.7 | 3.5 | 0.00 | 0.72 | 0.18 | 89 | 1012.0 |
| 20260506131901 | 47 | 295 | 0.0 | 2.6 | 0.00 | 0.72 | 0.18 | 90 | 1012.0 |
| 20260506130901 | 46 | 311 | 0.9 | 2.6 | 0.00 | 0.72 | 0.18 | 90 | 1012.1 |
| 20260506130343 | 46 | 5 | 1.7 | 3.5 | 0.00 | 0.72 | 0.18 | 91 | 1012.1 |
| 20260506124900 | 46 | 326 | 0.9 | 3.5 | 0.00 | 0.72 | 0.18 | 92 | 1012.2 |
| 20260506123900 | 46 | 309 | 1.7 | 4.3 | 0.00 | 0.72 | 0.18 | 93 | 1011.9 |
| 20260506122900 | 46 | 301 | 0.9 | 2.6 | 0.00 | 0.72 | 0.18 | 94 | 1011.4 |
| 20260506121901 | 45 | 294 | 1.7 | 5.2 | 0.00 | 0.72 | 0.18 | 95 | 1011.2 |
| 20260506120900 | 45 | 309 | 1.7 | 5.2 | 0.00 | 0.72 | 0.18 | 95 | 1011.0 |
| 20260506115900 | 46 | 292 | 0.0 | 1.7 | 0.00 | 0.72 | 0.18 | 95 | 1011.0 |
| 20260506114900 | 46 | 319 | 0.9 | 2.6 | 0.00 | 0.72 | 0.18 | 95 | 1011.1 |
| 20260506113900 | 46 | 206 | 0.0 | 0.9 | 0.00 | 0.72 | 0.18 | 95 | 1011.3 |
| 20260506113342 | 46 | 317 | 1.7 | 3.5 | 0.00 | 0.72 | 0.18 | 95 | 1011.1 |
| 20260506111900 | 46 | 288 | 0.9 | 3.5 | 0.00 | 0.72 | 0.18 | 96 | 1010.5 |
| 20260506110901 | 46 | 86 | 0.9 | 2.6 | 0.00 | 0.72 | 0.18 | 96 | 1009.8 |
| 20260506105901 | 46 | 323 | 1.7 | 2.6 | 0.00 | 0.72 | 0.18 | 96 | 1009.9 |
| 20260506104900 | 46 | 338 | 0.9 | 3.5 | 0.00 | 0.72 | 0.18 | 96 | 1010.3 |
| 20260506103902 | 46 | 292 | 0.9 | 2.6 | 0.00 | 0.72 | 0.18 | 96 | 1010.1 |
| 20260506103341 | 46 | 302 | 0.9 | 4.3 | 0.00 | 0.72 | 0.18 | 96 | 1010.1 |
| 20260506101903 | 46 | 342 | 0.9 | 3.5 | 0.00 | 0.72 | 0.18 | 96 | 1010.1 |
| 20260506100902 | 46 | 342 | 0.9 | 2.6 | 0.00 | 0.72 | 0.18 | 96 | 1009.7 |
| 20260506095903 | 46 | 330 | 0.9 | 3.5 | 0.00 | 0.72 | 0.18 | 96 | 1008.9 |
| 20260506094900 | 46 | 344 | 0.9 | 1.7 | 0.01 | 0.72 | 0.18 | 96 | 1009.1 |
| 20260506093901 | 46 | 329 | 0.9 | 2.6 | 0.02 | 0.72 | 0.18 | 96 | 1009.2 |
| 20260506092900 | 46 | 317 | 0.9 | 3.5 | 0.02 | 0.72 | 0.18 | 95 | 1008.7 |
| 20260506092345 | 46 | 32 | 1.7 | 3.5 | 0.03 | 0.72 | 0.18 | 95 | 1009.3 |
| 20260506090901 | 46 | 313 | 1.7 | 7.0 | 0.04 | 0.72 | 0.18 | 95 | 1009.4 |
| 20260506085901 | 46 | 270 | 1.7 | 4.3 | 0.04 | 0.72 | 0.18 | 95 | 1008.8 |
| 20260506084900 | 46 | 18 | 1.7 | 4.3 | 0.04 | 0.71 | 0.17 | 95 | 1008.9 |
| 20260506084334 | 46 | 107 | 1.7 | 3.5 | 0.03 | 0.70 | 0.16 | 95 | 1009.2 |
| 20260506082901 | 46 | 327 | 0.9 | 4.3 | 0.03 | 0.70 | 0.16 | 95 | 1009.3 |
| 20260506081901 | 46 | 41 | 0.9 | 3.5 | 0.02 | 0.69 | 0.15 | 95 | 1009.2 |
| 20260506080902 | 46 | 336 | 1.7 | 5.2 | 0.02 | 0.68 | 0.14 | 95 | 1009.0 |
| 20260506072902 | 46 | 305 | 1.7 | 4.3 | 0.05 | 0.67 | 0.13 | 95 | 1008.5 |
| 20260506070902 | 46 | 337 | 1.7 | 7.8 | 0.06 | 0.66 | 0.12 | 95 | 1008.6 |
| 20260506061901 | 47 | 341 | 1.7 | 5.2 | 0.04 | 0.61 | 0.07 | 95 | 1008.7 |
| 20260506060901 | 48 | 336 | 1.7 | 5.2 | 0.04 | 0.60 | 0.06 | 95 | 1008.9 |
| 20260506050904 | 49 | 290 | 1.7 | 3.5 | 0.02 | 0.56 | 0.02 | 95 | 1008.8 |
| 20260506050340 | 49 | 289 | 0.9 | 2.6 | 0.01 | 0.55 | 0.01 | 95 | 1009.0 |
| 20260506044901 | 49 | 314 | 0.9 | 3.5 | 0.00 | 0.54 | 0.00 | 95 | 1009.2 |
| 20260506043902 | 49 | 11 | 0.9 | 3.5 | 0.00 | 0.54 | 0.00 | 95 | 1008.8 |
| 20260506042901 | 49 | 258 | 0.9 | 6.1 | 0.01 | 0.54 | 0.00 | 95 | 1008.9 |
| 20260506041901 | 49 | 39 | 1.7 | 3.5 | 0.02 | 0.54 | 0.00 | 95 | 1008.9 |
| 20260506040900 | 49 | 0 | 0.9 | 3.5 | 0.03 | 0.54 | 0.00 | 95 | 1008.9 |
| 20260506035901 | 50 | 343 | 0.9 | 3.5 | 0.06 | 0.54 | 0.54 | 94 | 1009.0 |
| 20260506034901 | 50 | 134 | 0.9 | 4.3 | 0.08 | 0.54 | 0.54 | 95 | 1009.1 |
| 20260506033901 | 50 | 107 | 0.9 | 3.5 | 0.10 | 0.54 | 0.54 | 95 | 1009.2 |
| 20260506032902 | 50 | 54 | 0.0 | 2.6 | 0.10 | 0.53 | 0.53 | 94 | 1009.3 |
| 20260506030901 | 51 | 296 | 1.7 | 3.5 | 0.10 | 0.51 | 0.50 | 94 | 1009.8 |
| 20260506025902 | 51 | 329 | 1.7 | 6.1 | 0.08 | 0.48 | 0.48 | 94 | 1009.8 |
| 20260506023902 | 53 | 17 | 2.6 | 6.1 | 0.07 | 0.44 | 0.44 | 92 | 1009.3 |
| 20260506022901 | 56 | 190 | 1.7 | 3.5 | 0.08 | 0.43 | 0.43 | 92 | 1009.3 |
| 20260506021901 | 59 | 284 | 0.0 | 1.7 | 0.08 | 0.42 | 0.42 | 95 | 1009.3 |
| 20260506020900 | 59 | 299 | 0.0 | 2.6 | 0.08 | 0.41 | 0.41 | 95 | 1009.4 |
| 20260506015901 | 59 | 287 | 0.9 | 2.6 | 0.08 | 0.40 | 0.40 | 94 | 1009.4 |
| 20260506014902 | 60 | 296 | 0.0 | 2.6 | 0.06 | 0.38 | 0.38 | 94 | 1009.4 |
| 20260506013900 | 60 | 187 | 0.0 | 1.7 | 0.06 | 0.37 | 0.37 | 94 | 1009.3 |
| 20260506012902 | 60 | 263 | 0.9 | 6.1 | 0.05 | 0.35 | 0.35 | 94 | 1009.2 |
| 20260506011901 | 60 | 185 | 2.6 | 6.1 | 0.04 | 0.34 | 0.34 | 94 | 1009.0 |
| 20260506010902 | 60 | 104 | 2.6 | 8.7 | 0.04 | 0.33 | 0.33 | 95 | 1008.8 |